Location: Grossmotten
(48.5500°N, 15.3833°E)
Time: 21:54:06
(UTC+00:00)

Cosmos 1447 Rocket - Pass Details

Date: 15 November 2019
Orbit: 955 x 995 km, 82.9° (Epoch: 05 December)

Event Time Altitude Azimuth Distance (km) Brightness Sun altitude
Rises 03:50:23 0° 348° (NNW) 3,723 7.4 -22.3°
Reaches altitude 10° 03:52:55 10° 346° (NNW) 2,772 6.7 -21.9°
Maximum altitude 03:59:14 67° 266° (W) 1,075 4.4 -20.8°
Drops below altitude 10° 04:05:29 10° 185° (S) 2,749 6.9 -19.8°
Sets 04:08:00 0° 183° (S) 3,691 7.6 -19.4°
